This is the latest recevied weather packets stored in our database for station/object DM8MH-13. If no packets are shown the sender has not sent any weather packets the latest 10 day(s).
| Time | Temp. | Humidity | Pressure | Rain* | Wind** | Luminosity | Snow |
|---|---|---|---|---|---|---|---|
| 1777938672 | 14.44° C | 88% | 1011.3 hPa | 0 mm | - | 0 W/m² | - |
| 1777938072 | 14.44° C | 88% | 1011.2 hPa | 0 mm | - | 0 W/m² | - |
| 1777937473 | 14.44° C | 88% | 1011.3 hPa | 0 mm | - | 0 W/m² | - |
| 1777936873 | 14.44° C | 88% | 1011.4 hPa | 0 mm | - | 0 W/m² | - |
| 1777936273 | 15° C | 88% | 1011.5 hPa | 0 mm | - | 0 W/m² | - |
| 1777935672 | 15° C | 88% | 1011.6 hPa | 0 mm | - | 0 W/m² | - |
| 1777935072 | 15° C | 87% | 1011.6 hPa | 0 mm | - | 0 W/m² | - |
| 1777934472 | 15° C | 89% | 1011.7 hPa | 0 mm | - | 0 W/m² | - |
| 1777933873 | 15° C | 87% | 1011.7 hPa | 0 mm | - | 0 W/m² | - |
| 1777933273 | 15° C | 87% | 1011.6 hPa | 0 mm | - | 0 W/m² | - |
| 1777932673 | 15° C | 87% | 1011.7 hPa | 0 mm | - | 0 W/m² | - |
| 1777932072 | 15° C | 87% | 1011.6 hPa | 0 mm | - | 0 W/m² | - |
| 1777931472 | 15° C | 86% | 1011.8 hPa | 0.25 mm | - | 0 W/m² | - |
| 1777930873 | 15.56° C | 86% | 1012.1 hPa | 0.25 mm | - | 0 W/m² | - |
| 1777930273 | 15.56° C | 86% | 1012.2 hPa | 0.25 mm | - | 0 W/m² | - |
| 1777929683 | 15.56° C | 86% | 1012.2 hPa | 0.25 mm | - | 0 W/m² | - |
| 1777929072 | 15.56° C | 85% | 1012.1 hPa | 0.25 mm | - | 0 W/m² | - |
| 1777928472 | 16.11° C | 84% | 1012 hPa | 0.25 mm | - | 0 W/m² | - |
| 1777927872 | 16.67° C | 82% | 1012 hPa | 0 mm | - | 0 W/m² | - |
| 1777927272 | 17.22° C | 78% | 1012.5 hPa | 0 mm | - | 0 W/m² | - |
| 1777926672 | 17.22° C | 74% | 1012.6 hPa | 0 mm | - | 0 W/m² | - |
| 1777926072 | 17.78° C | 71% | 1012.7 hPa | 0 mm | - | 0 W/m² | - |
| 1777925472 | 17.78° C | 70% | 1012.6 hPa | 0 mm | - | 0 W/m² | - |
| 1777924872 | 17.78° C | 72% | 1012.5 hPa | 0 mm | - | 0 W/m² | - |
| 1777924271 | 18.33° C | 71% | 1012.2 hPa | 0 mm | - | 0 W/m² | - |
* Rain latest hour (hover to see other rain measurements)
** Current wind speed in m/s (hover to see current wind gust speed)